Location: Meanaryar
(48.4161°N, 4.7315°W)
Time: 06:12:35
(UTC+00:00)

Cosmos 1092 Rocket - Pass Details

Date: 18 September 2020
Orbit: 954 x 995 km, 82.9° (Epoch: 23 October)

Event Time Altitude Azimuth Distance (km) Brightness Sun altitude
Rises 19:48:17 0° 355° (N) 3,645 7.3 -14.5°
Reaches altitude 10° 19:50:57 10° 2° (N) 2,697 6.5 -14.9°
Maximum altitude 19:56:47 43° 73° (ENE) 1,332 4.4 -15.8°
Enters shadow 20:00:16 23° 131° (SE) 1,939 5.0 -16.3°
